Location: Newark
(33.9035°S, 18.4112°E)
Time: 20:26:44
(UTC+00:00)

STARLINK-1115 - Pass Details

Date: 21 January 2020
Orbit: 348 x 350 km, 53.0° (Epoch: 18 February)

Event Time Altitude Azimuth Distance (km) Brightness Sun altitude
Exits shadow 02:51:10 24° 291° (WNW) 797 3.9 -12.5°
Maximum altitude 02:52:41 52° 224° (SW) 453 3.1 -12.3°
Drops below altitude 10° 02:55:37 10° 145° (SE) 1,339 6.8 -11.8°
Sets 02:57:41 0° 139° (SE) 2,189 8.4 -11.4°
